Location: Potawatomi Wildlife Park
(41.2308°N, 86.1050°W)
Time: 14:11:13
(UTC-05:00)

Daily predictions for brighter satellites

Satellite Brightness Start Highest point End
(mag) Time Altitude Azimuth Time Altitude Azimuth Time Altitude Azimuth
Cosmos 1782 Rocket 3.7 18:46:14 10° S 18:50:32 53° E 18:54:52 10° NNE
Cosmos 2322 Rocket 3.0 18:45:51 10° N 18:50:45 30° NE 18:55:37 10° ESE
Cosmos 1346 Rocket 2.7 18:52:31 10° N 18:56:29 64° E 19:00:20 10° SSE
Meteor 1-28 Rocket 3.1 18:55:55 10° NNE 18:59:43 75° ESE 19:03:31 10° S
Okean 2 Rocket 3.3 18:55:58 10° SSE 19:00:17 50° E 19:04:36 10° NNE
COSMO-SKYMED 1 2.7 18:57:33 10° N 19:01:55 81° WNW 19:06:15 10° SSW
ALOS 3.1 19:00:59 10° SE 19:05:00 30° ENE 19:09:03 10° N
CENTAUR R/B 3.1 18:58:29 10° NNW 19:06:24 82° NE 19:14:48 10° SE
Cosmos 1833 Rocket 4.1 19:03:08 10° SW 19:08:21 38° WNW 19:13:36 10° N
Cosmos 1745 Rocket 4.0 19:03:13 10° S 19:09:29 67° E 19:15:44 10° NNE
SL-8 R/B 3.7 19:06:36 10° WNW 19:11:28 86° NNE 19:16:18 10° ESE
PSLV R/B 4.4 19:09:33 10° W 19:12:30 36° SSW 19:15:26 10° SE
NOSS 2-2 (E) 3.5 19:09:44 10° SW 19:13:47 88° WNW 19:18:30 10° NE
H-2A R/B 4.0 19:11:08 10° ESE 19:13:49 19° ENE 19:16:32 10° NNE
Cosmos 2151 Rocket 4.1 19:14:10 10° SSE 19:18:16 36° E 19:22:24 10° NNE
Cosmos 1818 4.5 19:16:12 10° SSE 19:20:43 27° ESE 19:24:33 13° ENE
ATLAS CENTAUR R/B 3.9 19:18:23 10° W 19:21:49 20° NW 19:25:06 10° N
FENGYUN 3A 3.9 19:16:59 10° SE 19:22:06 46° ENE 19:27:16 10° N
Cosmos 1812 2.7 19:19:58 10° N 19:23:48 58° E 19:27:35 10° SSE
Cosmos 1386 Rocket 4.4 19:20:26 10° S 19:26:31 69° E 19:32:33 10° NNE
Cosmos 44 Rocket 3.2 19:25:31 10° NNW 19:30:18 85° WSW 19:34:59 10° SSE
DELTA 2 R/B (1) 3.6 19:25:35 10° W 19:31:12 76° S 19:35:04 20° E
NOSS 2-2 (D) 3.8 19:29:32 10° SW 19:33:32 66° NW 19:38:11 10° NNE
SL-19 R/B 4.3 19:35:41 10° SSE 19:41:11 62° ENE 19:46:58 10° N
Cosmos 2292 Rocket 4.0 19:38:11 10° S 19:42:36 60° E 19:48:38 10° NNE
Meteor 1-18 Rocket 4.3 19:38:19 10° NNW 19:43:53 81° W 19:49:27 10° S
Cosmos 2360 Rocket 2.9 19:40:02 10° N 19:45:04 32° ENE 19:46:58 26° E
Cosmos 1602 4.4 19:41:39 10° SSE 19:45:05 32° E 19:45:05 32° E
Cosmos 1980 Rocket 3.8 19:40:37 10° NW 19:45:48 38° WSW 19:51:00 10° S
Cosmos 1461 3.1 19:43:28 10° NNW 19:47:19 44° NE 19:48:31 34° E
BREEZE-M DEB (TANK) 4.0 19:44:37 10° SSW 19:47:57 21° SSE 19:47:59 21° SSE
SJ-6B 3.4 19:44:13 10° S 19:48:14 61° W 19:52:12 10° NNW
Cosmos 2219 Rocket 4.2 19:48:12 10° NNE 19:48:54 10° NE 19:48:54 10° NE
Tiangong 2 0.9 19:47:39 10° WNW 19:50:43 72° N 19:51:10 58° ENE
Cosmos 676 Rocket 4.1 19:46:22 10° S 19:51:21 51° ESE 19:56:24 10° NNE
Helios 1A 3.5 19:52:22 35° E 19:52:47 36° ENE 19:56:38 10° N
Cosmos 407 Rocket 3.4 19:47:42 10° SSW 19:52:55 78° ESE 19:58:13 10° NNE
Cosmos 1833 4.5 19:53:33 10° S 19:58:55 43° ESE 20:01:51 24° NE
FengYun 1-2 T 4.2 19:54:07 10° SSE 19:59:36 85° WSW 20:05:08 10° NNW
SAR-Lupe-4 3.6 20:01:42 54° ENE 20:01:42 54° ENE 20:05:01 10° N
Cosmos 2333 Rocket 4.3 20:00:47 10° NNE 20:01:48 11° NNE 20:01:48 11° NNE
ERBS 4.3 19:59:50 10° WNW 20:02:50 27° SW 20:05:30 12° S
Cosmos 44 3.4 19:59:01 10° NW 20:03:24 62° WSW 20:06:46 16° SSE
Meteor 1-19 Rocket 4.3 19:57:52 10° N 20:03:25 55° ENE 20:08:13 14° SSE
Resurs 01 Rocket 1.6 20:01:35 10° SSE 20:06:00 83° WSW 20:10:25 10° NNW
GEOS 3 Rocket 4.4 20:01:09 10° NNE 20:06:12 51° NW 20:11:16 10° WSW
Cosmos 2181 Rocket 3.9 20:03:55 10° N 20:10:09 75° E 20:16:26 10° SSE
Cosmos 1536 Rocket 3.7 20:06:15 10° NNW 20:10:42 74° W 20:15:09 10° S
Meteor 1-13 Rocket 4.0 20:08:36 10° N 20:14:09 77° E 20:19:45 10° SSE
SL-16 R/B 2.6 20:09:16 10° NNW 20:14:52 62° WSW 20:20:26 10° S
Okean 1 4.4 20:13:49 10° NNW 20:17:43 47° W 20:21:37 10° SSW
DNEPR-1 R/B 3.7 20:15:12 10° NW 20:19:24 65° WSW 20:20:47 39° S
Helios 1B rocket 3.8 20:27:48 28° S 20:27:48 28° S 20:29:49 10° S
Cosmos 1140 Rocket 3.3 20:21:25 10° S 20:26:22 65° ESE 20:26:22 65° ESE
Spot 2 Rocket 4.1 20:21:57 10° S 20:26:54 57° W 20:31:54 10° NNW
Cosmos 1633 3.2 20:25:14 10° SSW 20:28:24 55° WSW 20:28:24 55° WSW
Cosmos 2184 Rocket 4.0 20:25:56 10° SSE 20:32:07 57° E 20:38:15 10° NNE
CZ-2D R/B 3.7 20:32:26 57° WSW 20:32:34 58° W 20:36:21 10° NNW
Cosmos 1340 3.3 20:29:28 10° NNW 20:33:10 53° W 20:33:19 52° WSW
Meteor 1-23 Rocket 4.3 20:28:01 10° N 20:33:22 57° ENE 20:33:22 57° ENE
Cosmos 2074 Rocket 3.9 20:28:41 10° S 20:34:49 62° E 20:41:00 10° NNE
Cosmos 2322 Rocket 3.4 20:29:40 10° NW 20:34:53 40° WSW 20:40:05 10° S
ALOS 4.3 20:38:24 10° SSW 20:42:23 28° W 20:46:24 10° NW
Cosmos 2322 3.5 20:36:44 10° NNW 20:42:30 78° ENE 20:42:35 78° ENE
Envisat 3.9 20:44:45 38° N 20:44:45 38° N 20:47:57 10° N
SL-08 ROCKET BODY 4.3 20:37:10 10° S 20:43:18 80° E 20:49:31 10° N
Cosmos 1954 Rocket 4.3 20:39:41 10° SSW 20:44:49 65° WNW 20:47:49 25° N
Cosmos 1300 Rocket 4.4 20:42:04 10° SSW 20:46:18 48° W 20:50:37 10° N
Meteor 1-11 Rocket 4.1 20:41:41 10° SSW 20:47:23 67° WNW 20:53:14 10° N
Meteor 2-4 Rocket 3.6 20:43:59 10° N 20:49:38 85° W 20:49:51 82° SSW
COSMOS 2428 3.6 20:46:32 10° NNW 20:50:12 36° NNE 20:50:12 36° NNE
USA 229 DEB 4.3 20:47:09 10° NNW 20:53:17 41° NNE 20:53:17 41° NNE
USA 229 4.3 20:47:16 10° NNW 20:53:22 41° NNE 20:53:22 41° NNE
Cosmos 1818 4.5 20:58:49 10° SW 21:04:01 45° NW 21:05:18 39° NNW
BREEZE-M DEB (TANK) 4.2 21:03:00 10° WNW 21:04:21 30° WNW 21:04:21 30° WNW
Cosmos 2237 Rocket 4.3 21:05:08 10° N 21:06:19 15° N 21:06:19 15° N
Cosmos 2360 Rocket 3.4 21:23:55 10° NW 21:28:48 38° W 21:28:48 38° W
Cosmos 2219 Rocket 4.2 21:28:59 10° NNW 21:30:39 20° NNW 21:30:39 20° NNW
Cosmos 2333 Rocket 4.4 21:42:25 10° NNW 21:43:49 18° NNW 21:43:49 18° NNW
